QPF
0.23 0.22 0.15 0.07 0.04 0.02 0.02 0.01 0.01 0.00 0.00 0.01 0.00 0.00 0.00 0.00 0.00 0.00 0.00 0.00 0.00 0.00 0.00 0.00 0.00 0.00 0.00 0.00 0.00 0.00 0.00 0.00 0.00 0.00 0.00 0.00 0.00 0.00 0.00 0.00 0.00 0.00 0.00 0.00
0.19 0.18 0.08 0.03 0.03 0.03 0.03 0.02 0.01 0.01 0.01 0.01 0.01 0.00 0.00 0.00 0.00 0.00 0.00 0.00 0.00 0.00 0.00 0.00 0.00 0.00 0.00 0.00 0.00 0.00 0.00 0.00 0.00 0.00 0.00 0.00 0.00 0.00 0.00 0.00 0.00 0.00 0.00 0.00
0.10 0.08 0.06 0.06 0.06 0.06 0.04 0.02 0.01 0.01 0.01 0.02 0.02 0.01 0.00 0.00 0.00 0.00 0.00 0.00 0.00 0.00 0.00 0.00 0.00 0.00 0.00 0.00 0.00 0.00 0.00 0.00 0.00 0.00 0.00 0.00 0.00 0.00 0.00 0.00 0.00 0.00 0.00 0.00
0.09 0.06 0.05 0.08 0.08 0.07 0.05 0.02 0.02 0.03 0.04 0.03 0.02 0.02 0.01 0.00 0.00 0.00 0.00 0.00 0.00 0.00 0.00 0.00 0.00 0.00 0.00 0.00 0.00 0.00 0.00 0.00 0.00 0.00 0.00 0.00 0.00 0.00 0.00 0.00 0.00 0.00 0.00 0.00
0.11 0.05 0.05 0.07 0.06 0.06 0.05 0.03 0.04 0.05 0.06 0.06 0.04 0.03 0.01 0.00 0.00 0.00 0.00 0.00 0.00 0.00 0.00 0.00 0.00 0.00 0.00 0.00 0.00 0.00 0.00 0.00 0.00 0.00 0.00 0.00 0.00 0.00 0.00 0.00 0.00 0.00 0.00 0.00
0.08 0.04 0.04 0.04 0.03 0.05 0.07 0.07 0.09 0.11 0.14 0.15 0.04 0.02 0.01 0.00 0.00 0.00 0.00 0.00 0.00 0.00 0.00 0.00 0.00 0.00 0.00 0.00 0.00 0.00 0.00 0.00 0.00 0.00 0.00 0.00 0.00 0.00 0.00 0.00 0.00 0.00 0.00 0.00
0.12 0.08 0.05 0.04 0.05 0.09 0.12 0.14 0.21 0.25 0.26 0.17 0.03 0.01 0.01 0.00 0.00 0.00 0.00 0.00 0.00 0.00 0.00 0.00 0.00 0.00 0.00 0.00 0.00 0.00 0.00 0.00 0.00 0.00 0.00 0.00 0.00 0.00 0.00 0.00 0.00 0.00 0.00 0.00
0.09 0.09 0.06 0.04 0.03 0.06 0.08 0.10 0.15 0.16 0.11 0.04 0.01 0.01 0.00 0.00 0.00 0.00 0.00 0.00 0.00 0.00 0.00 0.00 0.00 0.00 0.00 0.00 0.00 0.00 0.00 0.00 0.00 0.00 0.00 0.00 0.00 0.00 0.00 0.00 0.00 0.00 0.00 0.00
0.04 0.03 0.02 0.01 0.01 0.03 0.06 0.08 0.06 0.10 0.10 0.05 0.03 0.01 0.00 0.00 0.00 0.00 0.00 0.00 0.00 0.00 0.00 0.00 0.00 0.00 0.00 0.00 0.00 0.00 0.00 0.00 0.00 0.00 0.00 0.00 0.00 0.00 0.00 0.00 0.00 0.00 0.00 0.00
0.04 0.03 0.02 0.01 0.03 0.04 0.06 0.08 0.11 0.16 0.17 0.10 0.03 0.00 0.00 0.00 0.00 0.00 0.00 0.00 0.00 0.00 0.00 0.00 0.00 0.00 0.00 0.00 0.00 0.00 0.00 0.00 0.00 0.00 0.00 0.00 0.00 0.00 0.00 0.00 0.00 0.00 0.00 0.00
0.05 0.06 0.04 0.04 0.06 0.04 0.05 0.07 0.12 0.16 0.14 0.07 0.04 0.01 0.00 0.00 0.00 0.00 0.00 0.00 0.00 0.00 0.00 0.00 0.00 0.00 0.00 0.00 0.00 0.00 0.00 0.00 0.00 0.00 0.00 0.00 0.00 0.00 0.00 0.00 0.00 0.00 0.00 0.00
0.05 0.08 0.07 0.04 0.03 0.03 0.05 0.05 0.07 0.11 0.11 0.06 0.03 0.01 0.00 0.00 0.00 0.00 0.00 0.00 0.00 0.00 0.00 0.00 0.00 0.00 0.00 0.00 0.00 0.00 0.00 0.00 0.00 0.00 0.00 0.00 0.00 0.00 0.00 0.00 0.00 0.00 0.00 0.00
0.07 0.12 0.13 0.10 0.08 0.05 0.06 0.06 0.06 0.08 0.10 0.09 0.07 0.02 0.00 0.00 0.00 0.00 0.00 0.00 0.00 0.00 0.00 0.00 0.00 0.00 0.00 0.00 0.00 0.00 0.00 0.00 0.00 0.00 0.00 0.00 0.00 0.00 0.00 0.00 0.00 0.00 0.00 0.00
0.09 0.10 0.09 0.07 0.05 0.03 0.03 0.03 0.04 0.07 0.13 0.10 0.05 0.01 0.00 0.00 0.00 0.00 0.00 0.00 0.00 0.00 0.00 0.00 0.00 0.00 0.00 0.00 0.00 0.00 0.00 0.00 0.00 0.00 0.00 0.00 0.00 0.00 0.00 0.00 0.00 0.00 0.00 0.00
0.13 0.14 0.07 0.03 0.02 0.03 0.03 0.02 0.02 0.05 0.06 0.05 0.03 0.01 0.00 0.00 0.00 0.00 0.00 0.00 0.00 0.00 0.00 0.00 0.00 0.00 0.00 0.00 0.00 0.00 0.00 0.00 0.00 0.00 0.00 0.00 0.00 0.00 0.00 0.00 0.00 0.00 0.00 0.00
0.11 0.14 0.08 0.06 0.03 0.02 0.03 0.02 0.02 0.02 0.03 0.04 0.03 0.01 0.00 0.00 0.00 0.00 0.00 0.00 0.00 0.00 0.00 0.00 0.00 0.00 0.00 0.00 0.00 0.00 0.00 0.00 0.00 0.00 0.00 0.00 0.00 0.00 0.00 0.00 0.00 0.00 0.00 0.00
0.07 0.10 0.10 0.08 0.04 0.07 0.06 0.02 0.01 0.01 0.01 0.01 0.01 0.00 0.00 0.00 0.00 0.00 0.00 0.00 0.00 0.00 0.00 0.00 0.00 0.00 0.00 0.00 0.00 0.00 0.00 0.00 0.00 0.00 0.00 0.00 0.00 0.00 0.00 0.00 0.00 0.00 0.00 0.00
0.06 0.07 0.10 0.10 0.08 0.10 0.04 0.01 0.00 0.00 0.00 0.00 0.00 0.00 0.00 0.00 0.00 0.00 0.00 0.00 0.00 0.00 0.00 0.00 0.00 0.00 0.00 0.00 0.00 0.00 0.00 0.00 0.00 0.00 0.00 0.00 0.00 0.00 0.00 0.00 0.00 0.00 0.00 0.00
0.04 0.06 0.10 0.10 0.10 0.07 0.02 0.01 0.00 0.00 0.01 0.00 0.00 0.00 0.00 0.00 0.00 0.00 0.00 0.00 0.00 0.00 0.00 0.00 0.00 0.00 0.00 0.00 0.00 0.00 0.00 0.00 0.00 0.00 0.00 0.00 0.00 0.01 0.00 0.00 0.00 0.00 0.00 0.00
0.06 0.06 0.10 0.09 0.07 0.04 0.01 0.00 0.00 0.00 0.01 0.00 0.00 0.00 0.00 0.00 0.00 0.00 0.00 0.00 0.00 0.00 0.00 0.00 0.00 0.00 0.00 0.00 0.00 0.00 0.00 0.00 0.00 0.00 0.00 0.00 0.00 0.00 0.00 0.00 0.00 0.00 0.00 0.00
0.07 0.09 0.09 0.07 0.05 0.01 0.00 0.00 0.00 0.01 0.01 0.00 0.00 0.00 0.00 0.00 0.00 0.00 0.00 0.00 0.00 0.00 0.00 0.00 0.00 0.00 0.00 0.00 0.00 0.00 0.00 0.00 0.00 0.00 0.00 0.00 0.00 0.00 0.00 0.00 0.00 0.00 0.00 0.00
0.02 0.04 0.05 0.04 0.04 0.02 0.00 0.00 0.00 0.00 0.00 0.00 0.00 0.00 0.00 0.00 0.00 0.00 0.00 0.00 0.00 0.00 0.00 0.00 0.00 0.00 0.00 0.00 0.00 0.00 0.00 0.00 0.00 0.00 0.00 0.00 0.00 0.00 0.00 0.00 0.00 0.00 0.00 0.00
0.00 0.01 0.01 0.02 0.02 0.01 0.00 0.00 0.00 0.00 0.00 0.00 0.00 0.00 0.00 0.00 0.00 0.00 0.00 0.00 0.00 0.00 0.00 0.00 0.00 0.00 0.00 0.00 0.00 0.00 0.00 0.00 0.00 0.00 0.00 0.00 0.00 0.00 0.00 0.00 0.00 0.00 0.01 0.00
0.00 0.00 0.00 0.00 0.00 0.00 0.00 0.00 0.00 0.00 0.00 0.00 0.00 0.00 0.00 0.00 0.00 0.01 0.01 0.01 0.01 0.01 0.01 0.01 0.01 0.01 0.01 0.00 0.01 0.01 0.01 0.01 0.00 0.00 0.00 0.01 0.01 0.01 0.01 0.01 0.01 0.01 0.01 0.01
0.00 0.00 0.01 0.01 0.00 0.00 0.00 0.00 0.00 0.00 0.00 0.00 0.00 0.00 0.00 0.00 0.00 0.00 0.01 0.01 0.01 0.01 0.01 0.01 0.01 0.01 0.01 0.01 0.01 0.01 0.01 0.01 0.01 0.01 0.01 0.01 0.01 0.01 0.01 0.01 0.01 0.01 0.01 0.01
0.00 0.00 0.00 0.00 0.00 0.00 0.00 0.00 0.00 0.00 0.00 0.00 0.00 0.00 0.00 0.00 0.00 0.00 0.01 0.01 0.01 0.02 0.02 0.02 0.02 0.02 0.02 0.02 0.02 0.02 0.02 0.02 0.02 0.02 0.01 0.01 0.01 0.01 0.01 0.01 0.01 0.02 0.02 0.02
MSLP
1014.32 1014.94 1015.36 1015.58 1015.65 1015.61 1015.54 1015.49 1015.50 1015.56 1015.64 1015.70 1015.67 1015.54 1015.29 1014.93 1014.51 1014.10 1013.74 1013.49 1013.39 1013.43 1013.61 1013.88 1014.23 1014.61 1015.01 1015.43 1015.86 1016.31 1016.78 1017.27 1017.77 1018.25 1018.68 1019.04 1019.32 1019.52 1019.66 1019.78 1019.90 1020.06 1020.28 1020.58
1013.66 1014.24 1014.65 1014.89 1015.01 1015.05 1015.07 1015.12 1015.21 1015.33 1015.43 1015.48 1015.43 1015.25 1014.94 1014.53 1014.06 1013.60 1013.22 1012.96 1012.85 1012.88 1013.04 1013.29 1013.59 1013.92 1014.27 1014.63 1015.02 1015.46 1015.94 1016.46 1017.01 1017.55 1018.05 1018.47 1018.79 1019.00 1019.13 1019.20 1019.26 1019.36 1019.52 1019.76
1012.95 1013.52 1013.95 1014.26 1014.48 1014.64 1014.78 1014.94 1015.10 1015.24 1015.34 1015.34 1015.20 1014.92 1014.51 1014.01 1013.48 1012.99 1012.59 1012.34 1012.24 1012.29 1012.45 1012.69 1012.97 1013.25 1013.54 1013.85 1014.19 1014.58 1015.05 1015.58 1016.17 1016.75 1017.31 1017.78 1018.14 1018.38 1018.50 1018.55 1018.57 1018.61 1018.72 1018.93
1012.22 1012.81 1013.31 1013.72 1014.07 1014.38 1014.67 1014.94 1015.17 1015.33 1015.38 1015.29 1015.03 1014.61 1014.07 1013.45 1012.84 1012.30 1011.89 1011.65 1011.58 1011.67 1011.86 1012.10 1012.37 1012.63 1012.87 1013.12 1013.40 1013.75 1014.18 1014.69 1015.27 1015.88 1016.46 1016.97 1017.36 1017.62 1017.75 1017.80 1017.80 1017.81 1017.89 1018.06
1011.45 1012.09 1012.68 1013.23 1013.75 1014.23 1014.68 1015.07 1015.37 1015.54 1015.53 1015.33 1014.93 1014.35 1013.66 1012.91 1012.21 1011.62 1011.19 1010.97 1010.94 1011.06 1011.29 1011.57 1011.84 1012.09 1012.30 1012.50 1012.72 1013.00 1013.37 1013.84 1014.39 1014.97 1015.55 1016.06 1016.46 1016.74 1016.89 1016.94 1016.94 1016.94 1017.00 1017.15
1010.62 1011.33 1012.02 1012.72 1013.40 1014.07 1014.68 1015.20 1015.57 1015.75 1015.70 1015.40 1014.86 1014.14 1013.31 1012.45 1011.66 1011.02 1010.58 1010.38 1010.38 1010.56 1010.83 1011.15 1011.44 1011.68 1011.87 1012.03 1012.20 1012.41 1012.70 1013.09 1013.56 1014.08 1014.61 1015.09 1015.48 1015.76 1015.91 1015.98 1015.99 1016.00 1016.06 1016.20
1009.70 1010.46 1011.25 1012.08 1012.93 1013.76 1014.52 1015.17 1015.62 1015.82 1015.75 1015.39 1014.77 1013.94 1013.01 1012.07 1011.22 1010.56 1010.13 1009.95 1010.00 1010.22 1010.54 1010.90 1011.22 1011.47 1011.65 1011.77 1011.88 1012.01 1012.21 1012.49 1012.85 1013.27 1013.71 1014.13 1014.47 1014.72 1014.88 1014.95 1014.98 1015.00 1015.06 1015.19
1008.68 1009.47 1010.34 1011.27 1012.24 1013.20 1014.10 1014.85 1015.38 1015.63 1015.57 1015.20 1014.55 1013.70 1012.73 1011.77 1010.93 1010.28 1009.88 1009.74 1009.83 1010.10 1010.47 1010.86 1011.21 1011.47 1011.64 1011.73 1011.78 1011.82 1011.91 1012.07 1012.30 1012.59 1012.91 1013.22 1013.49 1013.69 1013.82 1013.89 1013.93 1013.96 1014.03 1014.16
1007.59 1008.39 1009.28 1010.27 1011.32 1012.37 1013.35 1014.18 1014.78 1015.09 1015.08 1014.74 1014.14 1013.33 1012.42 1011.52 1010.74 1010.16 1009.83 1009.75 1009.90 1010.21 1010.62 1011.04 1011.41 1011.68 1011.84 1011.90 1011.88 1011.85 1011.83 1011.85 1011.93 1012.07 1012.24 1012.42 1012.58 1012.71 1012.80 1012.85 1012.88 1012.92 1012.99 1013.11
1006.51 1007.29 1008.18 1009.17 1010.24 1011.32 1012.33 1013.20 1013.84 1014.20 1014.25 1014.00 1013.49 1012.80 1012.03 1011.27 1010.62 1010.17 1009.94 1009.95 1010.17 1010.53 1010.97 1011.41 1011.79 1012.06 1012.20 1012.23 1012.16 1012.05 1011.91 1011.81 1011.74 1011.71 1011.72 1011.76 1011.81 1011.84 1011.86 1011.88 1011.89 1011.92 1011.98 1012.08
1005.58 1006.31 1007.16 1008.12 1009.14 1010.18 1011.15 1011.99 1012.63 1013.02 1013.13 1012.98 1012.62 1012.10 1011.52 1010.96 1010.52 1010.24 1010.16 1010.29 1010.58 1011.00 1011.46 1011.91 1012.29 1012.54 1012.67 1012.66 1012.55 1012.36 1012.14 1011.91 1011.70 1011.52 1011.38 1011.28 1011.19 1011.12 1011.07 1011.02 1010.99 1010.99 1011.02 1011.09
1004.90 1005.59 1006.38 1007.26 1008.19 1009.12 1010.00 1010.75 1011.33 1011.70 1011.85 1011.80 1011.58 1011.26 1010.90 1010.59 1010.38 1010.31 1010.41 1010.67 1011.06 1011.52 1012.01 1012.46 1012.83 1013.07 1013.17 1013.14 1012.99 1012.74 1012.44 1012.11 1011.79 1011.48 1011.20 1010.96 1010.75 1010.57 1010.42 1010.30 1010.21 1010.15 1010.13 1010.15
1004.57 1005.22 1005.95 1006.73 1007.53 1008.31 1009.02 1009.63 1010.09 1010.39 1010.54 1010.55 1010.46 1010.33 1010.21 1010.14 1010.18 1010.34 1010.63 1011.03 1011.51 1012.03 1012.54 1012.99 1013.34 1013.56 1013.64 1013.59 1013.41 1013.13 1012.78 1012.38 1011.97 1011.56 1011.17 1010.81 1010.48 1010.19 1009.94 1009.73 1009.55 1009.42 1009.33 1009.27
1004.61 1005.24 1005.91 1006.58 1007.22 1007.81 1008.33 1008.73 1009.03 1009.22 1009.31 1009.35 1009.37 1009.40 1009.48 1009.66 1009.93 1010.31 1010.78 1011.32 1011.89 1012.47 1012.99 1013.44 1013.77 1013.97 1014.04 1013.97 1013.78 1013.49 1013.11 1012.68 1012.21 1011.73 1011.26 1010.80 1010.37 1009.98 1009.62 1009.30 1009.02 1008.78 1008.59 1008.45
1004.96 1005.59 1006.19 1006.75 1007.23 1007.62 1007.92 1008.10 1008.21 1008.25 1008.26 1008.29 1008.37 1008.53 1008.79 1009.16 1009.65 1010.22 1010.86 1011.52 1012.18 1012.79 1013.33 1013.77 1014.08 1014.27 1014.33 1014.26 1014.08 1013.79 1013.42 1012.98 1012.50 1011.98 1011.45 1010.91 1010.39 1009.89 1009.42 1008.99 1008.59 1008.23 1007.92 1007.66
1005.50 1006.12 1006.67 1007.12 1007.45 1007.65 1007.73 1007.70 1007.61 1007.50 1007.42 1007.42 1007.53 1007.78 1008.18 1008.72 1009.37 1010.10 1010.87 1011.64 1012.36 1013.00 1013.55 1013.98 1014.28 1014.45 1014.51 1014.45 1014.29 1014.03 1013.69 1013.27 1012.79 1012.26 1011.69 1011.10 1010.50 1009.91 1009.32 1008.76 1008.23 1007.74 1007.30 1006.90
1006.05 1006.66 1007.15 1007.51 1007.71 1007.75 1007.64 1007.44 1007.18 1006.94 1006.78 1006.75 1006.89 1007.21 1007.71 1008.37 1009.15 1009.99 1010.86 1011.69 1012.45 1013.10 1013.64 1014.06 1014.34 1014.52 1014.58 1014.54 1014.41 1014.20 1013.90 1013.52 1013.06 1012.54 1011.95 1011.32 1010.65 1009.96 1009.27 1008.58 1007.92 1007.29 1006.70 1006.18
1006.46 1007.04 1007.48 1007.76 1007.85 1007.77 1007.54 1007.21 1006.85 1006.54 1006.33 1006.30 1006.46 1006.83 1007.41 1008.15 1009.01 1009.92 1010.83 1011.69 1012.46 1013.11 1013.63 1014.02 1014.29 1014.46 1014.54 1014.53 1014.44 1014.28 1014.03 1013.70 1013.28 1012.77 1012.18 1011.52 1010.79 1010.01 1009.21 1008.40 1007.60 1006.83 1006.12 1005.47
1006.63 1007.15 1007.54 1007.75 1007.77 1007.62 1007.33 1006.95 1006.56 1006.24 1006.04 1006.04 1006.24 1006.67 1007.30 1008.09 1008.98 1009.92 1010.83 1011.68 1012.42 1013.04 1013.52 1013.88 1014.14 1014.31 1014.40 1014.42 1014.38 1014.27 1014.08 1013.80 1013.42 1012.93 1012.34 1011.64 1010.85 1010.00 1009.09 1008.17 1007.25 1006.36 1005.53 1004.78
1006.53 1006.99 1007.31 1007.47 1007.46 1007.30 1007.01 1006.65 1006.31 1006.04 1005.91 1005.96 1006.23 1006.71 1007.38 1008.18 1009.08 1009.99 1010.87 1011.66 1012.35 1012.91 1013.34 1013.67 1013.90 1014.07 1014.18 1014.23 1014.24 1014.18 1014.04 1013.81 1013.46 1012.98 1012.38 1011.65 1010.81 1009.87 1008.88 1007.85 1006.82 1005.83 1004.90 1004.07
1006.24 1006.62 1006.88 1007.01 1006.99 1006.86 1006.63 1006.35 1006.11 1005.94 1005.92 1006.07 1006.41 1006.94 1007.62 1008.42 1009.28 1010.13 1010.93 1011.65 1012.26 1012.74 1013.12 1013.41 1013.62 1013.78 1013.91 1013.99 1014.04 1014.02 1013.93 1013.73 1013.40 1012.92 1012.30 1011.53 1010.63 1009.62 1008.54 1007.42 1006.30 1005.23 1004.23 1003.34
1005.85 1006.15 1006.36 1006.47 1006.48 1006.40 1006.27 1006.12 1006.02 1005.99 1006.09 1006.35 1006.76 1007.33 1008.01 1008.77 1009.56 1010.33 1011.03 1011.65 1012.16 1012.57 1012.89 1013.14 1013.33 1013.49 1013.63 1013.74 1013.82 1013.84 1013.76 1013.58 1013.25 1012.76 1012.10 1011.29 1010.32 1009.24 1008.07 1006.87 1005.68 1004.54 1003.48 1002.55
1005.50 1005.72 1005.89 1006.00 1006.05 1006.05 1006.03 1006.02 1006.06 1006.19 1006.42 1006.77 1007.25 1007.83 1008.49 1009.20 1009.90 1010.57 1011.17 1011.68 1012.10 1012.43 1012.70 1012.91 1013.09 1013.25 1013.40 1013.53 1013.62 1013.65 1013.59 1013.39 1013.04 1012.52 1011.82 1010.94 1009.90 1008.74 1007.50 1006.22 1004.96 1003.76 1002.66 1001.70
1005.26 1005.43 1005.57 1005.68 1005.78 1005.86 1005.96 1006.08 1006.26 1006.52 1006.86 1007.30 1007.81 1008.40 1009.02 1009.66 1010.27 1010.84 1011.34 1011.75 1012.10 1012.37 1012.59 1012.78 1012.95 1013.12 1013.27 1013.41 1013.50 1013.52 1013.43 1013.21 1012.81 1012.23 1011.46 1010.51 1009.40 1008.16 1006.84 1005.49 1004.17 1002.92 1001.78 1000.80
1005.21 1005.33 1005.45 1005.57 1005.71 1005.87 1006.06 1006.30 1006.59 1006.95 1007.38 1007.87 1008.41 1008.98 1009.56 1010.13 1010.66 1011.14 1011.55 1011.90 1012.18 1012.42 1012.62 1012.80 1012.97 1013.13 1013.29 1013.41 1013.48 1013.47 1013.33 1013.05 1012.58 1011.93 1011.08 1010.05 1008.85 1007.54 1006.14 1004.73 1003.35 1002.05 1000.88 999.88
1005.34 1005.42 1005.52 1005.65 1005.82 1006.04 1006.30 1006.62 1007.00 1007.43 1007.91 1008.43 1008.98 1009.53 1010.08 1010.59 1011.06 1011.48 1011.84 1012.14 1012.40 1012.62 1012.81 1012.99 1013.15 1013.31 1013.44 1013.53 1013.56 1013.48 1013.27 1012.91 1012.36 1011.62 1010.68 1009.56 1008.29 1006.90 1005.45 1003.98 1002.55 1001.22 1000.02 998.99
Thickness
5569 5570 5580 5593 5598 5605 5607 5610 5614 5626 5638 5634 5635 5643 5656 5668 5673 5678 5685 5691 5697 5704 5711 5715 5717 5718 5716 5714 5712 5709 5705 5702 5698 5695 5692 5689 5688 5687 5687 5686 5684 5682 5680 5677
5556 5567 5589 5592 5592 5591 5594 5597 5606 5616 5627 5625 5625 5635 5651 5662 5668 5675 5681 5687 5693 5699 5705 5710 5713 5714 5713 5712 5711 5708 5706 5703 5700 5698 5695 5692 5689 5688 5687 5686 5684 5683 5680 5678
5557 5578 5582 5578 5579 5581 5585 5591 5598 5601 5609 5613 5610 5617 5637 5654 5664 5672 5680 5686 5692 5696 5699 5703 5706 5709 5710 5710 5709 5708 5706 5704 5701 5698 5693 5690 5687 5687 5686 5686 5685 5684 5681 5679
5551 5567 5569 5568 5573 5577 5579 5592 5591 5590 5586 5588 5594 5594 5630 5645 5654 5666 5674 5680 5687 5693 5697 5700 5702 5704 5706 5708 5709 5707 5705 5703 5700 5697 5693 5690 5689 5689 5691 5689 5687 5685 5682 5679
5547 5558 5559 5562 5573 5576 5578 5585 5582 5580 5575 5574 5583 5582 5612 5639 5647 5662 5672 5678 5685 5690 5693 5695 5698 5701 5703 5705 5705 5704 5702 5700 5699 5696 5694 5691 5690 5691 5690 5687 5685 5684 5682 5679
5544 5554 5557 5563 5571 5571 5571 5568 5567 5566 5560 5559 5578 5574 5598 5628 5646 5658 5669 5676 5680 5684 5687 5690 5694 5695 5696 5698 5698 5699 5698 5697 5696 5694 5693 5691 5690 5689 5687 5686 5685 5684 5682 5679
5527 5535 5547 5556 5554 5557 5557 5551 5544 5544 5546 5558 5581 5574 5600 5635 5651 5657 5663 5668 5673 5676 5678 5680 5683 5685 5687 5689 5690 5691 5691 5691 5692 5691 5690 5690 5689 5687 5686 5686 5684 5683 5681 5680
5517 5524 5539 5547 5553 5555 5554 5550 5544 5544 5549 5559 5568 5573 5608 5636 5645 5652 5657 5661 5664 5666 5668 5671 5674 5676 5678 5680 5681 5682 5683 5684 5685 5685 5686 5686 5686 5684 5684 5684 5683 5682 5682 5681
5521 5527 5544 5548 5553 5551 5546 5544 5553 5544 5541 5542 5557 5582 5607 5625 5632 5638 5643 5646 5649 5652 5656 5659 5663 5665 5667 5669 5671 5673 5674 5675 5677 5678 5678 5679 5680 5680 5680 5680 5679 5678 5679 5678
5526 5523 5535 5540 5539 5541 5546 5546 5537 5532 5533 5536 5549 5565 5589 5610 5617 5624 5628 5631 5635 5639 5642 5646 5649 5652 5654 5657 5660 5662 5664 5666 5668 5669 5669 5671 5672 5673 5674 5673 5673 5674 5674 5672
5517 5513 5521 5526 5528 5535 5534 5533 5533 5531 5530 5534 5540 5564 5605 5610 5614 5615 5618 5621 5624 5626 5628 5631 5634 5637 5640 5643 5645 5648 5651 5653 5655 5657 5659 5661 5663 5664 5665 5666 5667 5667 5667 5666
5510 5505 5505 5517 5530 5536 5535 5536 5532 5526 5526 5533 5538 5557 5601 5603 5605 5604 5604 5607 5610 5613 5615 5617 5619 5621 5624 5627 5630 5633 5637 5640 5643 5646 5648 5650 5652 5653 5655 5657 5659 5659 5659 5659
5503 5492 5491 5497 5503 5513 5519 5527 5530 5528 5523 5522 5526 5548 5586 5588 5588 5590 5591 5592 5595 5598 5600 5601 5603 5604 5606 5609 5614 5617 5621 5626 5630 5633 5635 5638 5640 5642 5645 5647 5648 5649 5650 5650
5498 5486 5489 5500 5512 5515 5513 5520 5524 5520 5515 5518 5528 5546 5565 5570 5572 5574 5575 5576 5578 5581 5583 5584 5586 5588 5591 5593 5597 5601 5606 5610 5615 5619 5622 5625 5628 5630 5633 5635 5636 5637 5638 5639
5484 5475 5481 5495 5508 5510 5509 5511 5515 5515 5519 5518 5530 5540 5555 5559 5558 5559 5560 5562 5563 5565 5568 5570 5571 5573 5575 5578 5581 5585 5590 5594 5599 5603 5608 5612 5615 5617 5619 5622 5624 5626 5627 5629
5472 5465 5468 5473 5488 5495 5496 5504 5508 5510 5514 5516 5521 5531 5548 5547 5547 5546 5547 5547 5547 5547 5550 5552 5554 5555 5557 5560 5563 5567 5572 5577 5582 5587 5593 5597 5600 5603 5605 5608 5610 5612 5615 5616
5460 5455 5456 5462 5472 5470 5472 5496 5504 5507 5514 5515 5515 5528 5534 5533 5533 5531 5531 5530 5530 5530 5531 5533 5535 5536 5539 5542 5546 5550 5554 5559 5563 5569 5576 5579 5582 5586 5589 5592 5595 5598 5601 5603
5453 5448 5448 5450 5448 5450 5484 5505 5507 5507 5510 5512 5514 5515 5518 5518 5516 5513 5511 5509 5509 5510 5512 5514 5516 5519 5522 5525 5528 5532 5536 5540 5545 5551 5557 5561 5564 5569 5573 5576 5580 5584 5586 5588
5452 5445 5441 5439 5441 5452 5477 5494 5500 5499 5499 5501 5502 5503 5504 5502 5501 5498 5497 5494 5493 5493 5495 5496 5498 5502 5505 5508 5511 5513 5517 5522 5526 5532 5537 5541 5545 5550 5555 5559 5564 5567 5569 5573
5444 5441 5435 5433 5435 5437 5474 5488 5493 5488 5477 5488 5491 5490 5488 5487 5486 5489 5482 5478 5477 5477 5477 5478 5480 5483 5487 5489 5491 5494 5498 5502 5508 5513 5517 5522 5526 5532 5538 5544 5547 5550 5552 5556
5428 5427 5427 5428 5429 5439 5464 5474 5477 5461 5472 5475 5475 5472 5470 5468 5467 5463 5460 5458 5457 5457 5458 5458 5461 5463 5466 5468 5470 5474 5479 5484 5489 5493 5499 5504 5509 5515 5521 5526 5529 5533 5535 5538
5425 5421 5420 5421 5421 5432 5452 5455 5455 5451 5450 5450 5450 5448 5445 5442 5442 5441 5440 5439 5438 5438 5439 5438 5439 5442 5445 5446 5449 5454 5459 5464 5468 5473 5480 5486 5491 5496 5501 5505 5510 5514 5516 5519
5424 5428 5426 5428 5429 5431 5428 5430 5428 5430 5429 5427 5426 5424 5423 5422 5421 5421 5421 5420 5420 5419 5418 5418 5419 5422 5426 5427 5428 5433 5439 5443 5448 5455 5462 5467 5472 5476 5481 5485 5490 5494 5497 5501
5406 5413 5413 5408 5411 5409 5407 5407 5406 5407 5405 5404 5403 5402 5403 5401 5401 5401 5400 5399 5398 5398 5397 5398 5400 5403 5407 5408 5410 5413 5418 5423 5429 5436 5442 5448 5453 5458 5462 5465 5470 5475 5479 5482
5393 5391 5392 5392 5392 5390 5389 5386 5383 5382 5381 5380 5380 5380 5380 5380 5380 5379 5378 5378 5378 5378 5377 5378 5380 5384 5387 5389 5392 5394 5398 5403 5409 5415 5422 5428 5433 5438 5443 5447 5451 5456 5460 5462
5372 5374 5379 5383 5378 5376 5373 5366 5363 5361 5359 5358 5358 5358 5359 5358 5358 5358 5358 5358 5357 5357 5357 5358 5360 5364 5367 5370 5374 5376 5379 5383 5388 5396 5403 5408 5413 5418 5422 5427 5432 5437 5441 5445